When you browse on this site, cookies collect data to enhance your experience and personalize the content and advertising you see.
Visit our Privacy Policy to learn more. By continuing to use the site, you agree to this use of cookies and data.
EN

Hourly Weather Godzimierz

Today, 25 September, Friday

Time Temperature Precipitation Wind Pressure Humidity
00:00 +17°C° 0 mm 2 mps 741 mmHg 79%
01:00 +17°C° 0 mm 2 mps 740 mmHg 81%
02:00 +16°C° 0 mm 2 mps 740 mmHg 81%
03:00 +16°C° 0 mm 2 mps 740 mmHg 82%
04:00 +16°C° 0 mm 3 mps 739 mmHg 83%
05:00 +16°C° 0 mm 3 mps 739 mmHg 81%
06:00 +17°C° 0 mm 3 mps 738 mmHg 79%
07:00 +17°C° 0 mm 4 mps 738 mmHg 77%
08:00 +19°C° 0 mm 4 mps 737 mmHg 71%
09:00 +20°C° 0 mm 5 mps 737 mmHg 64%
10:00 +22°C° 0 mm 6 mps 737 mmHg 57%
11:00 +23°C° 0 mm 6 mps 736 mmHg 54%
12:00 +24°C° 0 mm 6 mps 736 mmHg 50%
13:00 +26°C° 0 mm 6 mps 735 mmHg 46%
14:00 +26°C° 0 mm 6 mps 735 mmHg 48%
15:00 +24°C° 0 mm 6 mps 735 mmHg 50%
16:00 +24°C° 0 mm 6 mps 734 mmHg 52%
17:00 +23°C° 0.1 mm 6 mps 734 mmHg 57%
18:00 +21°C° 0.1 mm 6 mps 734 mmHg 62%
19:00 +20°C° 0.1 mm 5 mps 734 mmHg 67%
20:00 +19°C° 0.1 mm 4 mps 734 mmHg 70%
21:00 +19°C° 0.1 mm 4 mps 734 mmHg 73%
22:00 +19°C° 0.1 mm 3 mps 734 mmHg 76%
23:00 +18°C° 0 mm 3 mps 734 mmHg 78%

Tomorrow, 26 September, Saturday

Time Temperature Precipitation Wind Pressure Humidity
00:00 +18°C° 0 mm 3 mps 733 mmHg 79%
01:00 +18°C° 0 mm 3 mps 733 mmHg 81%
02:00 +17°C° 0 mm 4 mps 732 mmHg 83%
03:00 +17°C° 0 mm 4 mps 732 mmHg 85%
04:00 +17°C° 0 mm 4 mps 731 mmHg 87%
05:00 +16°C° 0 mm 5 mps 731 mmHg 81%
06:00 +17°C° 0 mm 6 mps 731 mmHg 75%
07:00 +18°C° 0 mm 7 mps 730 mmHg 70%
08:00 +18°C° 0 mm 7 mps 730 mmHg 68%
09:00 +20°C° 0 mm 6 mps 731 mmHg 67%
10:00 +20°C° 0 mm 6 mps 731 mmHg 66%
11:00 +19°C° 0.9 mm 6 mps 731 mmHg 72%
12:00 +17°C° 0.9 mm 5 mps 732 mmHg 79%
13:00 +16°C° 0.9 mm 5 mps 732 mmHg 86%
14:00 +17°C° 1.5 mm 4 mps 732 mmHg 87%
15:00 +16°C° 1.5 mm 3 mps 733 mmHg 88%
16:00 +15°C° 1.5 mm 2 mps 733 mmHg 89%
17:00 +14°C° 0.2 mm 2 mps 733 mmHg 87%
18:00 +14°C° 0.2 mm 2 mps 733 mmHg 86%
19:00 +14°C° 0.2 mm 2 mps 734 mmHg 84%
20:00 +13°C° 0.3 mm 3 mps 734 mmHg 84%
21:00 +12°C° 0.3 mm 3 mps 734 mmHg 83%
22:00 +12°C° 0.3 mm 4 mps 734 mmHg 83%
23:00 +11°C° 1 mm 4 mps 734 mmHg 84%

Day after tomorrow, 27 September, Sunday

Time Temperature Precipitation Wind Pressure Humidity
00:00 +10°C° 1 mm 5 mps 734 mmHg 86%
01:00 +9°C° 1 mm 6 mps 734 mmHg 88%
02:00 +9°C° 1.6 mm 5 mps 734 mmHg 89%
03:00 +8°C° 1.6 mm 5 mps 734 mmHg 90%
04:00 +8°C° 1.6 mm 5 mps 734 mmHg 90%
05:00 +8°C° 0.6 mm 5 mps 734 mmHg 90%
06:00 +8°C° 0.6 mm 6 mps 734 mmHg 89%
07:00 +8°C° 0.6 mm 6 mps 734 mmHg 89%
08:00 +8°C° 1.5 mm 6 mps 735 mmHg 88%
09:00 +8°C° 1.5 mm 6 mps 735 mmHg 87%
10:00 +8°C° 1.5 mm 6 mps 735 mmHg 85%
11:00 +9°C° 0.2 mm 5 mps 736 mmHg 81%
12:00 +9°C° 0.2 mm 5 mps 736 mmHg 77%
13:00 +10°C° 0.2 mm 5 mps 736 mmHg 73%
14:00 +11°C° 0 mm 4 mps 737 mmHg 72%
15:00 +12°C° 0 mm 3 mps 737 mmHg 71%
16:00 +13°C° 0 mm 2 mps 738 mmHg 69%
17:00 +13°C° 0 mm 2 mps 739 mmHg 70%
18:00 +12°C° 0 mm 2 mps 739 mmHg 71%
19:00 +12°C° 0 mm 1 mps 740 mmHg 72%
20:00 +10°C° 0 mm 2 mps 741 mmHg 74%
21:00 +10°C° 0 mm 2 mps 741 mmHg 75%
22:00 +9°C° 0 mm 2 mps 742 mmHg 77%
23:00 +9°C° 0 mm 3 mps 742 mmHg 78%

28 September, Monday

Time Temperature Precipitation Wind Pressure Humidity
00:00 +9°C° 0 mm 3 mps 742 mmHg 79%
01:00 +8°C° 0 mm 3 mps 742 mmHg 80%
02:00 +8°C° 0 mm 3 mps 743 mmHg 80%
03:00 +8°C° 0 mm 3 mps 743 mmHg 80%
04:00 +8°C° 0 mm 2 mps 743 mmHg 80%
05:00 +8°C° 0 mm 3 mps 744 mmHg 78%
06:00 +9°C° 0 mm 3 mps 744 mmHg 77%
07:00 +9°C° 0 mm 3 mps 744 mmHg 75%
08:00 +11°C° 0 mm 3 mps 744 mmHg 68%
09:00 +13°C° 0 mm 3 mps 744 mmHg 61%
10:00 +16°C° 0 mm 3 mps 744 mmHg 54%
11:00 +17°C° 0 mm 3 mps 744 mmHg 52%
12:00 +17°C° 0 mm 4 mps 744 mmHg 50%
13:00 +18°C° 0 mm 4 mps 744 mmHg 47%
14:00 +18°C° 0 mm 4 mps 744 mmHg 50%
15:00 +17°C° 0 mm 3 mps 744 mmHg 54%
16:00 +17°C° 0 mm 3 mps 743 mmHg 57%
17:00 +14°C° 0 mm 3 mps 744 mmHg 62%
18:00 +13°C° 0 mm 3 mps 744 mmHg 67%
19:00 +11°C° 0 mm 3 mps 744 mmHg 73%
20:00 +11°C° 0 mm 3 mps 744 mmHg 73%
21:00 +12°C° 0 mm 2 mps 743 mmHg 73%
22:00 +12°C° 0 mm 2 mps 743 mmHg 74%
23:00 +12°C° 0 mm 2 mps 743 mmHg 73%

29 September, Tuesday

Time Temperature Precipitation Wind Pressure Humidity
00:00 +12°C° 0 mm 2 mps 743 mmHg 73%
01:00 +11°C° 0 mm 3 mps 742 mmHg 72%
02:00 +12°C° 0.3 mm 2 mps 742 mmHg 77%
03:00 +12°C° 0.3 mm 2 mps 742 mmHg 81%
04:00 +12°C° 0.3 mm 2 mps 742 mmHg 86%
05:00 +10°C° 0.6 mm 2 mps 742 mmHg 88%
06:00 +10°C° 0.6 mm 2 mps 742 mmHg 91%
07:00 +10°C° 0.6 mm 2 mps 743 mmHg 93%
08:00 +10°C° 0.5 mm 2 mps 743 mmHg 93%
09:00 +12°C° 0.5 mm 2 mps 743 mmHg 93%
10:00 +12°C° 0.5 mm 2 mps 743 mmHg 93%
11:00 +12°C° 0.1 mm 2 mps 743 mmHg 89%
12:00 +13°C° 0.1 mm 1 mps 744 mmHg 85%
13:00 +13°C° 0.1 mm 1 mps 744 mmHg 82%
14:00 +14°C° 0.1 mm 2 mps 744 mmHg 78%
15:00 +15°C° 0.1 mm 2 mps 745 mmHg 75%
16:00 +14°C° 0.1 mm 3 mps 745 mmHg 71%
17:00 +13°C° 0 mm 3 mps 746 mmHg 78%
18:00 +12°C° 0 mm 3 mps 746 mmHg 84%
19:00 +11°C° 0 mm 3 mps 746 mmHg 90%
20:00 +10°C° 0 mm 3 mps 747 mmHg 90%
21:00 +10°C° 0 mm 3 mps 747 mmHg 89%
22:00 +10°C° 0 mm 3 mps 747 mmHg 89%
23:00 +10°C° 0 mm 3 mps 747 mmHg 90%

30 September, Wednesday

Time Temperature Precipitation Wind Pressure Humidity
00:00 +9°C° 0 mm 3 mps 747 mmHg 91%
01:00 +9°C° 0 mm 3 mps 747 mmHg 92%
02:00 +9°C° 0 mm 3 mps 747 mmHg 93%
03:00 +9°C° 0 mm 2 mps 747 mmHg 94%
04:00 +8°C° 0 mm 2 mps 747 mmHg 95%
05:00 +9°C° 0 mm 2 mps 747 mmHg 94%
06:00 +9°C° 0 mm 2 mps 747 mmHg 93%
07:00 +10°C° 0 mm 2 mps 747 mmHg 92%
08:00 +12°C° 0 mm 2 mps 747 mmHg 85%
09:00 +14°C° 0 mm 2 mps 747 mmHg 77%
10:00 +15°C° 0 mm 2 mps 747 mmHg 70%
11:00 +16°C° 0 mm 3 mps 747 mmHg 66%
12:00 +17°C° 0 mm 3 mps 747 mmHg 61%
13:00 +18°C° 0 mm 3 mps 746 mmHg 57%
14:00 +17°C° 0 mm 3 mps 746 mmHg 59%
15:00 +17°C° 0 mm 3 mps 746 mmHg 61%
16:00 +17°C° 0 mm 2 mps 745 mmHg 62%
17:00 +15°C° 0 mm 2 mps 745 mmHg 67%
18:00 +14°C° 0 mm 2 mps 745 mmHg 71%
19:00 +13°C° 0 mm 2 mps 746 mmHg 76%
20:00 +12°C° 0 mm 2 mps 745 mmHg 78%
21:00 +12°C° 0 mm 2 mps 745 mmHg 80%
22:00 +10°C° 0 mm 2 mps 745 mmHg 82%
23:00 +10°C° 0 mm 2 mps 745 mmHg 84%
Show more